RH
82 89 93 98 100 100 100 100 100 100 100 100 100 100 100 100 95 91 90 80 64 63 73 74 71 68 65 64 63 64 65 64 63 63 63 64 63 63 63 62 60 57 52 48 48 47 42 37 34 30 25 22 20 18 17 17 16 16 18 21 24 26 29
74 90 99 101 100 100 100 100 100 100 100 100 101 100 101 100 95 93 91 77 66 71 77 74 70 68 66 65 64 65 65 65 66 66 66 66 66 65 64 64 61 57 55 52 50 47 40 34 32 29 24 22 21 20 20 20 18 19 23 26 29 32 34
67 84 96 100 100 100 100 100 100 100 100 101 100 100 101 99 95 95 89 75 71 77 77 72 70 68 65 65 65 65 66 66 68 69 69 68 69 68 66 65 61 56 53 52 50 46 39 33 30 27 24 24 23 22 22 21 20 23 28 30 33 36 37
68 80 89 96 100 100 99 100 100 100 100 100 100 101 101 98 97 95 84 74 76 80 76 72 69 66 64 64 64 65 66 68 71 71 71 71 70 70 68 65 61 55 51 48 47 44 38 33 30 26 25 25 25 24 25 24 22 25 31 32 33 36 38
69 78 88 95 99 100 100 100 100 100 100 100 100 101 100 99 99 92 79 76 80 79 74 71 67 64 63 64 64 66 68 71 73 73 73 73 72 71 69 66 61 55 49 45 43 41 37 33 31 28 26 27 28 26 26 26 26 28 32 33 34 35 35
68 74 90 99 99 100 100 100 100 101 100 100 101 100 100 100 96 84 77 79 81 77 73 69 64 62 63 64 65 67 71 74 75 75 75 73 72 72 69 65 59 54 49 44 41 40 37 34 33 32 29 29 31 29 28 28 27 30 34 35 35 34 33
70 76 91 100 100 100 100 100 101 100 100 101 100 100 102 98 87 79 80 82 79 75 71 65 61 61 62 65 68 71 74 77 77 77 76 75 74 72 68 62 58 53 49 45 42 40 38 36 35 34 32 32 33 32 31 31 30 31 35 37 37 36 34
77 86 97 101 100 100 101 100 100 100 101 100 100 102 99 89 81 80 83 82 77 72 66 61 60 61 62 66 70 74 77 79 79 79 78 77 75 72 66 61 57 53 48 45 43 41 40 39 38 37 36 35 36 34 33 34 34 33 35 38 40 40 40
85 95 101 101 100 101 100 100 100 101 100 100 101 100 90 81 82 85 84 78 73 66 61 58 58 60 63 67 72 77 80 81 81 80 79 78 75 71 66 61 56 51 48 45 44 43 42 41 40 40 39 38 39 39 38 38 37 35 37 40 42 44 48
91 96 99 101 101 101 101 101 101 100 100 102 99 90 82 83 88 86 80 73 66 60 57 56 57 59 64 69 75 80 81 81 81 82 81 80 76 70 64 60 55 50 47 47 46 45 44 43 41 41 42 40 40 43 42 40 39 39 42 47 48 49 56
94 95 97 100 101 101 102 101 100 100 102 99 89 82 85 90 88 80 72 66 60 56 55 55 57 61 65 71 78 82 81 81 82 83 83 82 78 70 62 58 54 50 47 48 48 47 48 46 43 44 44 41 41 44 44 42 44 46 51 57 61 62 66
95 96 97 99 101 102 101 100 101 102 97 88 83 87 92 89 80 72 65 59 56 54 53 54 58 63 68 75 82 84 82 82 83 84 85 84 78 70 62 57 54 51 48 47 48 50 50 49 47 48 47 44 44 46 46 45 48 54 64 73 77 76 73
97 98 99 101 101 101 100 102 101 94 87 85 90 94 89 79 71 65 59 55 53 52 53 57 60 64 71 78 82 81 80 82 84 85 86 85 80 71 62 56 55 55 53 50 50 51 51 51 53 52 49 47 48 49 48 48 52 66 82 89 88 84 78
100 100 101 101 100 101 101 99 91 85 87 94 96 89 79 70 64 58 54 52 50 51 54 57 61 67 75 81 80 77 76 80 83 84 85 86 81 72 62 54 51 54 57 57 57 56 55 55 55 53 51 51 53 52 50 50 60 79 96 99 95 91 83
101 101 100 100 101 101 96 89 84 89 96 97 89 79 70 63 58 53 51 50 50 52 55 57 62 70 79 82 79 75 76 78 80 82 84 85 80 70 61 52 47 49 55 60 63 64 62 59 57 55 52 52 55 56 59 66 78 93 102 102 98 92 83
100 100 100 101 101 95 88 86 91 98 97 88 78 70 63 57 54 51 50 50 51 54 57 61 69 78 84 83 77 76 80 83 84 81 79 79 77 69 59 50 47 52 58 61 63 64 64 62 59 57 54 52 53 54 62 80 94 101 104 104 98 88 78
100 100 101 100 96 91 88 92 98 96 88 78 69 63 57 53 51 50 51 52 54 56 60 67 78 87 88 83 77 79 85 92 96 90 79 74 71 65 56 47 46 53 60 65 68 67 66 64 62 62 64 69 73 73 80 91 94 93 95 96 89 81 75
100 100 100 97 94 94 94 96 94 87 77 68 61 56 52 50 50 51 53 53 55 59 64 74 85 91 89 83 80 84 90 97 103 99 88 78 71 63 52 45 47 54 60 68 73 72 69 68 67 68 69 74 81 89 97 99 93 89 91 89 85 81 78
101 100 99 97 96 98 97 93 85 76 67 60 55 52 50 50 52 53 53 55 58 63 71 82 90 91 88 84 83 87 91 95 99 99 93 82 72 61 48 43 49 58 62 67 73 71 68 67 68 70 68 65 68 78 91 97 97 98 99 95 92 92 90
101 100 98 97 98 98 94 85 75 66 58 53 51 50 50 51 53 53 54 58 62 69 79 89 91 88 86 86 87 90 94 97 100 100 92 80 69 57 48 48 54 59 63 70 73 72 69 66 66 68 67 63 64 71 85 98 102 102 102 102 101 102 100
101 100 97 97 96 93 85 74 65 57 52 50 50 50 51 52 53 54 57 61 68 77 87 92 91 88 85 85 87 90 94 98 102 100 91 79 65 53 50 56 62 63 65 68 68 68 68 67 69 72 72 70 69 71 83 97 103 103 103 103 105 106 102
101 99 97 95 92 84 74 65 58 53 51 50 50 50 51 52 54 57 62 67 75 86 92 92 90 88 86 85 86 88 90 94 98 99 90 75 63 60 66 71 73 73 70 65 66 71 72 69 70 73 78 82 81 82 88 96 101 104 105 104 105 106 101
101 99 95 90 82 74 65 59 54 51 50 49 50 51 52 54 57 62 69 76 84 91 94 92 90 88 88 87 87 89 91 94 97 98 88 72 67 77 85 82 78 79 75 72 77 83 80 74 70 70 73 79 85 91 97 100 100 100 102 104 105 105 102
100 95 88 81 73 66 60 57 54 52 50 49 50 52 54 57 62 69 79 88 92 92 93 93 90 90 90 89 88 88 91 94 96 95 84 69 65 72 76 75 77 81 82 84 89 90 87 82 77 73 71 71 75 80 86 91 94 95 97 100 101 101 101
94 88 80 73 68 63 60 58 56 53 51 50 51 54 57 61 67 75 88 98 99 97 98 97 94 93 95 94 90 89 89 92 94 91 80 67 61 62 68 77 83 84 85 90 95 96 95 90 84 80 77 73 70 69 69 74 80 82 84 87 88 90 91
86 80 74 70 67 64 61 58 56 54 52 52 53 57 62 67 72 82 94 102 102 101 102 101 99 100 101 98 94 92 92 92 89 82 72 63 59 64 75 85 88 87 89 94 98 100 100 94 87 85 82 76 72 71 72 73 72 70 70 70 70 72 74
78 74 70 67 65 62 59 56 54 53 54 55 57 61 67 73 82 93 100 103 102 102 102 102 102 102 99 96 94 93 92 88 82 72 64 58 55 63 81 95 98 96 97 99 100 102 100 94 89 85 82 77 74 75 76 77 76 74 72 70 68 65 62
74 70 67 64 60 58 56 55 55 55 57 60 64 70 77 86 95 100 101 101 102 102 103 103 102 100 97 94 90 86 81 75 70 65 61 58 55 59 77 96 104 103 101 101 102 103 101 97 91 86 82 80 78 77 78 78 79 79 78 77 74 69 63
71 67 62 59 56 55 54 54 56 61 66 70 76 84 93 100 103 103 102 103 104 104 103 102 99 95 92 87 81 74 67 63 61 61 60 60 59 60 68 84 100 106 104 103 103 102 101 100 97 91 85 81 78 79 81 81 81 81 81 80 77 73 69
65 61 57 55 55 57 59 62 66 71 76 80 88 97 102 102 101 99 99 100 103 104 103 99 92 84 78 73 68 63 59 56 58 61 62 62 65 67 69 79 96 105 104 102 103 103 102 102 102 98 91 85 81 83 84 84 84 84 83 82 80 77 75
61 60 60 60 59 59 63 67 71 76 80 85 92 99 102 101 99 97 95 93 95 95 91 85 79 72 66 62 60 57 55 57 60 64 67 69 70 71 71 76 89 102 105 103 102 101 101 101 102 103 100 95 91 89 88 88 88 87 84 83 82 80 79
63 64 66 68 66 62 58 56 55 56 59 64 69 74 78 81 83 83 84 87 91 91 83 74 67 63 59 57 58 57 58 60 63 67 71 74 74 71 68 68 74 85 97 104 103 102 102 103 105 107 107 103 100 96 93 92 91 89 85 82 80 78 79
65 65 63 62 60 57 54 51 49 47 47 48 51 55 59 62 63 64 67 72 77 77 74 70 66 63 61 60 61 62 62 61 61 63 67 73 75 73 72 70 65 66 77 93 102 104 105 105 105 106 104 103 102 102 98 96 95 92 88 83 79 78 78
56 54 52 48 46 45 45 45 46 46 46 47 49 51 55 58 58 57 58 61 63 64 65 69 72 74 74 72 70 69 68 65 61 60 63 69 75 78 81 78 70 63 67 80 92 100 104 104 103 103 102 101 101 101 100 98 97 95 90 83 79 78 80
40 40 39 38 38 38 39 39 39 39 41 43 45 49 54 55 54 53 54 58 61 63 65 67 70 74 78 80 79 78 78 78 76 74 73 75 79 87 92 89 81 76 76 80 88 97 102 102 101 103 105 105 103 101 99 98 97 95 90 84 81 81 83
31 32 33 33 34 36 37 39 41 43 45 47 50 55 60 61 60 61 64 66 67 68 70 71 72 76 80 84 88 91 93 94 95 95 93 91 92 95 99 99 95 93 91 91 94 98 99 98 101 105 107 106 105 103 100 98 97 95 89 85 83 85 85
Wind_Speed
63 63 62 61 60 61 62 62 61 61 62 62 60 60 61 62 63 63 62 59 57 56 56 55 55 55 53 52 51 51 52 52 53 54 54 54 54 54 54 54 56 59 60 58 56 56 56 54 54 54 54 54 54 53 50 48 47 47 48 48 48 47 46
62 62 62 62 61 62 63 63 63 63 62 60 59 59 61 62 63 63 61 59 57 56 55 55 55 55 54 52 51 51 51 51 51 52 53 53 53 54 54 54 55 57 59 59 56 55 55 54 53 52 52 52 52 51 49 47 46 46 46 45 45 45 44
61 61 62 63 63 64 64 64 63 61 59 58 58 59 61 62 62 61 60 58 56 56 55 55 56 55 54 53 52 52 51 51 50 51 52 52 52 53 54 54 54 55 56 57 56 54 54 54 53 52 52 52 51 49 47 46 46 45 45 43 43 43 43
61 62 62 63 64 65 65 63 61 58 57 57 58 59 60 61 61 60 58 57 56 55 55 55 55 54 53 53 53 52 51 50 50 50 51 51 51 52 53 53 53 53 54 55 55 54 53 54 54 52 51 51 50 48 46 46 46 45 44 42 41 42 42
59 61 63 64 64 63 61 58 56 56 56 58 59 59 60 60 59 58 56 55 55 55 54 54 54 53 52 53 53 53 51 50 50 50 50 51 51 52 52 52 52 52 51 53 54 53 52 53 54 53 51 50 49 47 45 45 44 44 44 42 40 41 41
57 59 61 61 60 58 56 54 55 56 57 58 58 59 59 59 58 56 55 55 55 55 54 53 53 52 52 52 52 52 51 50 49 50 51 51 50 51 51 51 50 50 50 51 53 53 52 53 53 53 51 49 48 47 45 44 43 43 43 42 40 40 40
55 56 56 56 56 55 54 54 55 56 57 58 57 57 57 57 56 55 54 54 54 54 54 53 52 51 51 51 51 50 50 50 49 50 50 51 50 50 50 50 49 49 50 51 52 53 53 52 51 52 51 49 47 46 45 44 43 42 42 42 40 39 39
53 53 53 54 54 54 54 55 56 57 57 56 55 55 56 55 54 54 54 54 54 54 53 52 51 51 51 50 50 49 49 49 49 49 50 50 49 49 49 49 48 49 50 51 52 52 52 51 51 51 50 48 47 46 44 42 42 42 42 41 39 38 39
51 52 52 52 53 54 55 56 57 56 55 53 53 54 54 53 53 53 54 54 54 53 53 52 51 51 50 49 49 49 48 48 49 49 49 48 48 48 49 48 48 48 49 50 51 51 51 50 50 49 48 47 46 45 43 41 42 42 41 40 39 39 38
50 51 52 53 54 55 56 57 55 53 51 51 52 53 52 52 52 53 53 53 53 53 52 52 51 51 50 49 48 48 48 48 48 48 47 46 46 47 48 47 47 48 49 50 50 50 50 50 50 48 47 46 45 44 42 41 41 41 40 39 40 40 39
51 52 52 54 55 55 55 54 52 50 50 50 51 51 50 51 51 52 52 52 53 53 52 51 51 50 49 48 48 48 47 47 47 47 46 46 45 45 46 47 48 48 48 49 49 49 48 49 49 48 46 46 45 43 41 40 40 40 40 40 40 41 39
51 52 52 53 53 52 52 51 49 49 48 48 49 49 50 50 50 51 51 51 52 52 52 51 51 50 49 48 46 46 47 47 46 45 45 45 45 44 45 46 47 48 48 48 49 49 48 48 48 47 46 45 44 42 40 39 39 40 40 39 40 41 40
50 50 50 50 50 49 49 48 47 46 45 46 47 48 48 49 50 52 52 52 52 51 50 49 49 49 49 47 46 46 46 46 45 44 44 44 44 44 45 45 45 46 47 48 49 49 47 45 45 46 45 43 42 40 39 39 39 38 39 39 40 41 41
48 48 48 47 47 47 47 46 44 43 43 45 46 46 47 49 51 52 53 53 53 52 50 49 49 48 47 46 46 46 45 44 43 43 43 43 44 45 45 45 44 44 45 47 48 49 47 45 44 44 43 41 40 40 40 39 38 37 38 40 41 42 42
46 46 46 45 45 45 44 42 41 41 43 44 45 46 47 49 51 52 53 53 53 52 51 51 50 49 47 47 46 45 44 43 42 42 42 42 44 44 44 45 43 42 42 43 44 46 46 46 45 44 42 40 38 38 38 38 37 37 39 41 43 43 43
45 45 45 44 43 42 41 40 40 40 42 44 45 46 47 49 51 52 53 53 52 51 50 50 49 48 47 47 46 44 43 43 43 44 43 42 43 44 44 43 41 39 40 41 42 44 44 44 44 43 42 40 37 36 37 37 38 39 40 43 44 44 43
44 44 43 42 41 40 40 40 40 40 42 44 45 46 48 50 51 52 53 52 50 49 49 48 47 46 47 47 45 43 42 42 43 46 45 43 43 43 43 41 39 38 38 38 41 43 43 42 42 41 39 37 35 34 35 37 40 41 41 43 44 44 43
43 43 41 40 39 39 40 40 40 40 42 44 45 46 48 50 51 52 52 51 49 49 48 47 46 45 45 45 43 42 41 40 42 45 46 45 44 43 43 41 38 37 37 37 39 41 41 41 41 40 39 37 35 34 35 39 44 44 43 43 43 43 42
41 40 39 38 38 39 40 40 40 40 41 44 45 47 48 49 51 52 51 49 49 48 47 46 45 44 44 43 42 41 41 41 42 44 45 45 44 44 43 40 38 37 37 37 38 39 39 40 40 41 41 40 38 38 39 42 44 44 44 44 44 43 44
39 38 38 38 38 39 39 40 40 40 42 44 45 46 48 49 51 51 49 48 48 48 47 46 45 44 42 41 41 41 40 41 42 43 44 45 45 44 42 40 38 38 38 38 38 38 38 39 40 40 41 41 40 40 40 41 42 42 43 43 44 45 46
37 37 37 37 38 39 39 40 41 42 42 43 45 46 47 49 50 49 48 48 48 47 46 45 45 44 42 41 41 40 39 40 41 41 42 44 45 43 41 40 40 39 38 39 38 37 36 36 37 38 38 38 38 38 39 40 41 41 42 42 43 45 47
36 37 37 38 38 39 40 40 41 42 42 43 44 45 46 48 48 48 47 48 47 46 45 45 45 44 42 41 41 40 40 40 40 40 41 42 43 41 39 38 39 40 40 40 39 36 35 34 34 34 35 35 35 36 37 39 40 41 41 41 43 45 47
36 37 38 38 39 40 40 41 42 42 42 43 43 44 46 46 47 47 47 48 47 46 45 45 44 43 42 41 40 41 41 40 40 40 41 40 39 37 37 38 40 42 42 41 40 38 37 36 35 35 34 34 35 36 37 40 42 42 41 42 44 46 48
36 37 39 39 40 40 41 42 42 42 42 42 42 44 45 45 45 45 46 47 47 46 45 45 44 43 42 41 41 41 42 42 41 41 40 40 39 40 40 40 40 41 41 41 40 40 39 38 37 37 36 35 35 36 37 39 41 42 42 43 45 46 47
37 38 39 40 41 41 41 42 43 42 42 41 41 43 44 45 44 44 44 46 47 46 45 45 45 43 42 42 42 43 44 44 42 40 39 39 41 42 41 40 39 40 40 40 40 40 40 39 39 39 38 37 37 36 36 37 39 40 41 42 43 44 45
38 40 40 41 41 42 42 42 43 43 42 41 40 41 43 44 45 44 44 45 45 45 45 45 45 44 43 43 43 44 45 44 43 40 38 38 40 42 41 39 39 40 41 40 40 40 40 40 40 39 39 39 37 36 36 37 39 40 40 41 41 42 42
39 40 41 41 42 42 43 43 43 42 42 41 41 41 42 44 44 43 43 44 44 45 45 46 45 44 44 44 44 44 44 44 43 41 39 38 39 40 41 40 40 41 41 42 41 41 41 41 41 40 40 39 38 37 37 38 39 40 40 41 42 42 42
40 40 41 42 43 43 43 43 43 42 41 42 42 42 42 43 43 42 42 43 44 45 46 46 45 45 45 45 45 44 44 43 41 40 38 37 38 39 40 41 41 42 42 42 42 42 42 42 41 41 40 40 39 38 37 38 39 40 40 41 42 43 42
41 41 41 42 43 43 44 44 43 42 42 42 42 42 42 42 42 41 42 43 44 46 47 47 46 45 45 45 44 43 43 42 40 39 38 37 38 39 41 41 41 42 42 42 42 42 42 42 42 42 41 40 39 38 38 39 39 39 40 41 42 42 42
41 42 42 43 43 43 43 43 43 42 43 43 42 42 42 42 42 42 42 43 44 46 47 48 47 45 44 44 43 42 41 40 39 38 38 38 38 39 41 41 41 42 42 42 43 43 43 43 42 42 41 41 40 39 39 39 39 40 40 41 42 43 42
41 41 42 43 43 43 42 42 42 42 42 42 41 41 41 42 42 43 43 43 44 46 47 47 46 45 44 43 43 42 40 39 39 37 37 38 38 39 40 41 42 42 43 43 44 44 43 43 43 42 42 41 41 41 41 40 40 40 41 41 42 43 42
40 40 41 42 42 43 43 43 43 43 42 42 42 42 42 41 41 41 42 43 44 46 47 47 46 46 44 43 43 42 40 39 39 38 37 38 40 41 41 42 43 43 43 44 45 44 44 43 42 42 42 41 41 42 42 41 40 40 41 41 42 42 42
39 39 40 40 41 42 43 44 44 45 44 44 44 44 43 42 41 40 39 41 43 46 47 47 47 46 45 44 43 43 43 42 41 40 39 39 40 41 41 42 43 43 43 44 44 44 44 43 42 42 42 42 42 42 42 42 41 41 41 42 42 42 41
37 38 39 39 40 42 43 43 44 45 45 45 45 44 44 44 43 41 40 41 43 44 45 45 45 45 45 44 44 44 45 45 44 43 42 41 40 40 41 42 42 41 41 42 43 44 44 43 43 42 43 42 42 42 42 42 41 41 41 41 42 42 41
36 37 38 39 40 41 42 43 44 45 44 44 44 44 44 44 44 43 41 40 41 43 43 43 44 44 45 45 44 44 44 45 45 45 44 43 42 41 41 42 42 41 40 41 42 43 44 44 43 43 43 43 43 42 42 42 41 41 41 41 41 41 40
38 38 39 39 40 41 41 42 42 42 43 42 42 42 43 44 43 42 41 40 40 41 42 42 42 43 44 44 44 43 43 43 43 44 43 43 42 42 42 42 42 41 41 41 42 43 44 44 43 43 43 43 43 42 42 42 41 40 41 41 41 41 40
Wind_Direction
271 271 271 272 273 273 274 274 275 276 276 275 275 278 283 287 290 290 289 288 287 288 289 289 288 287 288 288 290 290 291 292 293 293 293 294 293 293 292 291 290 289 290 289 287 287 287 286 285 285 285 284 283 283 282 279 275 269 265 264 262 260 259
272 270 269 269 270 270 271 272 272 273 273 272 274 280 284 287 289 288 287 287 287 288 288 287 287 287 288 289 290 290 290 291 292 293 293 293 293 292 291 290 289 288 289 289 288 287 287 286 285 284 284 284 283 283 283 280 274 269 265 263 261 259 257
272 270 268 267 268 269 270 271 271 270 270 272 277 282 285 287 287 286 286 286 286 287 287 286 287 287 289 289 290 290 290 291 292 292 292 292 291 290 289 288 287 287 287 288 288 287 287 286 286 284 283 283 283 283 282 279 274 269 266 263 261 260 257
271 269 268 267 268 268 269 269 269 268 270 274 279 282 284 285 284 284 284 285 285 285 285 285 286 287 289 289 289 290 291 292 292 291 290 290 288 287 287 286 286 286 286 287 287 287 286 286 285 284 283 283 284 283 282 278 274 270 267 264 262 260 258
270 270 269 268 269 269 268 267 267 269 273 277 280 282 283 283 282 283 283 284 284 284 284 284 286 287 289 289 290 291 292 293 292 291 290 289 288 287 286 285 285 285 285 285 286 286 285 285 284 284 284 284 284 284 281 277 274 271 269 266 263 261 259
271 271 271 270 269 268 267 267 269 273 276 279 281 281 281 281 281 282 282 283 283 283 284 285 286 287 288 289 290 292 293 293 292 290 290 289 288 287 286 285 285 285 285 285 285 285 284 284 284 284 285 285 284 283 281 278 275 272 269 267 264 262 261
273 272 271 270 269 268 269 271 274 276 278 280 280 280 279 280 280 281 282 282 282 283 284 285 286 287 288 289 291 292 292 292 291 290 289 288 287 286 285 285 285 285 284 284 284 284 283 283 284 284 285 285 284 282 280 279 275 271 269 268 266 264 263
274 272 271 270 270 271 272 274 276 278 279 279 278 278 278 279 280 281 281 281 282 283 284 285 286 287 288 289 291 291 291 291 290 289 287 287 286 285 284 284 285 284 283 283 282 282 283 283 284 284 285 285 284 282 280 279 276 272 269 268 267 265 264
273 272 271 271 272 273 274 276 277 278 277 277 276 277 277 278 279 280 281 281 282 284 284 286 287 287 288 290 290 290 290 290 289 287 286 285 285 284 284 283 283 282 282 281 281 281 282 283 283 284 284 284 283 282 280 278 275 272 271 270 268 265 264
273 272 272 273 274 275 275 276 276 276 275 275 275 276 277 278 279 279 280 281 282 283 285 286 287 288 289 289 290 290 290 288 287 285 285 285 284 284 283 283 282 281 280 280 280 281 282 282 283 284 284 283 282 280 279 277 275 274 272 270 268 265 264
273 273 274 274 275 275 275 275 275 274 274 274 274 275 276 277 278 279 280 281 282 284 285 286 286 287 288 289 290 290 289 287 285 285 285 284 283 283 282 281 281 280 280 280 281 281 281 282 284 285 285 283 282 280 278 276 274 272 270 268 268 267 265
276 276 275 275 275 274 274 274 273 272 272 273 274 275 276 277 278 279 280 281 282 284 285 286 287 287 288 289 289 289 287 286 285 285 284 283 282 281 279 279 280 280 281 281 280 281 281 282 284 285 284 283 282 280 278 275 271 270 269 269 268 267 266
277 276 276 275 274 273 273 272 271 271 272 273 275 276 278 279 279 280 281 281 282 282 283 285 285 286 286 287 287 286 284 283 283 282 282 281 280 279 278 278 278 279 281 281 281 282 283 283 284 284 283 282 280 278 275 272 270 270 271 271 269 268 267
277 276 275 274 273 271 271 270 270 271 273 274 276 277 278 279 280 281 282 283 284 284 284 284 284 284 285 286 286 285 283 282 281 281 280 279 279 278 277 277 276 277 278 280 282 284 285 284 283 281 281 280 278 277 275 272 271 270 269 269 268 267 267
277 276 275 273 271 270 270 270 271 273 275 276 277 278 279 279 280 281 282 283 285 286 287 287 286 287 288 288 287 286 285 284 283 281 279 279 278 278 277 277 277 278 278 278 280 282 283 283 282 280 278 276 274 274 273 272 271 269 268 266 265 265 266
276 275 273 271 271 271 271 272 274 275 276 277 278 278 279 279 280 281 282 283 284 286 287 287 288 289 290 289 289 289 288 288 286 283 281 280 279 279 278 278 278 278 278 279 280 280 280 280 279 278 277 276 274 271 269 268 266 263 263 264 264 265 266
276 274 273 271 271 272 273 274 275 277 277 277 278 278 278 279 280 281 281 283 284 285 285 285 287 288 288 289 290 290 290 289 288 286 284 283 282 281 279 279 278 278 278 280 280 280 280 279 277 275 273 271 269 269 270 270 266 262 261 263 264 266 267
275 274 273 272 272 273 274 276 277 277 278 278 278 278 278 279 280 280 281 283 284 284 284 285 286 286 287 288 289 289 288 287 285 285 286 286 284 282 280 280 279 279 278 277 277 277 278 276 274 272 269 265 261 259 259 262 265 266 267 268 269 271 272
275 273 272 272 272 274 276 277 278 278 278 278 278 278 279 279 280 281 282 284 284 284 284 285 285 286 287 288 288 287 286 285 284 284 285 284 283 281 281 282 281 278 277 276 275 276 275 273 270 268 267 265 262 257 254 255 261 265 268 270 272 274 274
275 273 273 273 274 276 277 278 279 278 277 278 278 278 279 279 280 282 283 284 284 283 284 285 286 287 287 287 286 286 285 285 285 285 284 282 281 281 282 282 279 276 275 275 274 274 274 273 270 268 266 265 264 261 259 259 260 262 263 266 268 270 271
275 274 274 275 276 277 278 278 279 278 278 278 278 278 279 279 281 282 283 283 283 283 284 285 286 287 286 285 285 284 283 283 283 283 281 281 281 282 282 281 279 276 274 274 274 275 275 275 273 271 269 267 266 264 262 261 260 260 260 262 263 265 267
276 276 276 277 278 278 279 279 279 279 279 279 279 279 279 280 281 282 282 282 282 283 284 285 285 286 286 285 284 283 282 282 282 280 279 278 280 281 280 278 278 276 275 276 279 281 280 278 276 273 270 268 265 264 263 262 260 259 259 260 261 263 265
278 278 278 279 279 279 280 280 280 280 280 279 279 279 280 280 281 282 282 282 282 283 284 285 285 285 285 284 283 283 282 281 280 278 277 276 274 272 270 270 271 273 275 279 281 282 281 280 279 277 274 270 266 263 262 261 260 259 259 259 260 262 264
279 279 279 280 281 282 282 282 282 281 281 281 281 281 281 281 281 280 280 281 282 284 285 285 285 284 284 283 282 282 281 280 279 279 277 274 270 267 268 269 270 271 273 276 278 279 280 281 281 280 278 276 272 268 264 263 264 263 261 260 259 260 262
281 281 281 282 283 284 284 284 283 282 282 282 281 281 281 280 279 279 279 280 282 284 284 284 284 284 283 283 282 281 280 280 280 280 278 274 271 270 270 270 270 270 270 271 273 276 277 278 279 280 280 279 277 275 274 272 271 269 267 264 263 262 263
283 284 284 285 285 286 285 284 284 284 284 283 282 280 279 279 279 280 279 280 281 282 282 282 282 282 282 281 280 280 280 280 281 280 276 272 270 269 270 269 268 269 269 269 270 271 273 275 277 278 279 279 280 279 279 278 276 275 274 272 270 269 267
286 286 287 287 287 286 286 286 286 286 286 284 282 280 278 279 280 281 281 280 280 280 280 280 280 280 280 279 279 279 279 279 279 278 275 271 268 268 268 268 267 267 267 268 269 269 271 273 275 277 278 280 281 281 280 280 279 279 279 278 277 275 272
288 288 288 288 288 287 288 288 288 288 287 285 283 282 281 282 282 282 281 280 279 279 279 278 279 279 280 279 280 280 280 279 279 277 274 271 268 266 266 266 266 266 266 267 268 269 270 272 274 276 277 279 280 281 282 282 281 281 281 280 279 278 276
290 290 290 289 289 289 290 290 289 288 286 285 285 285 284 283 283 282 281 280 280 280 280 279 280 280 280 281 281 281 280 279 278 276 273 270 267 265 264 264 264 265 265 266 267 268 269 271 273 275 276 277 279 281 282 282 282 283 283 283 282 281 280
291 291 291 290 291 291 291 291 291 290 289 289 289 288 286 285 284 283 282 281 281 280 280 281 282 282 281 281 280 279 278 278 276 274 273 271 268 266 265 264 263 262 264 265 266 267 268 270 272 273 275 277 279 280 281 282 283 284 284 284 284 284 282
292 292 293 292 292 292 291 291 290 289 289 289 289 287 286 286 285 285 285 285 284 282 281 282 282 282 281 280 279 278 278 276 275 274 272 271 268 265 264 263 262 261 262 263 264 266 267 268 270 272 273 276 277 278 280 281 281 282 283 284 284 283 282
294 294 294 294 294 294 294 293 292 290 290 289 287 286 285 285 284 285 285 285 284 283 282 282 282 282 282 282 282 281 279 276 274 271 269 267 267 266 264 263 261 261 261 262 263 265 266 267 269 271 272 274 275 277 278 279 280 281 282 283 283 283 281
296 296 295 295 295 294 294 294 294 293 293 291 290 290 289 287 286 284 282 281 280 280 281 282 283 283 283 283 282 282 280 278 276 274 272 270 268 268 268 266 264 262 262 262 264 265 266 267 269 270 272 273 274 275 277 278 279 281 282 282 283 283 281
297 296 296 295 295 294 294 293 293 292 292 292 291 291 289 287 285 283 281 279 278 278 279 280 280 281 280 280 279 279 279 280 279 278 277 275 273 271 270 268 267 265 264 264 265 266 267 268 269 270 272 272 273 274 276 277 279 280 281 281 282 282 281
298 297 296 295 295 294 294 293 293 292 292 292 291 290 288 286 285 284 283 281 279 278 277 277 276 277 276 276 276 275 276 277 277 277 277 276 275 274 272 270 269 268 266 265 265 266 267 269 270 271 272 272 273 274 275 277 278 279 279 280 281 281 280
300 299 298 297 297 295 294 294 293 293 293 292 291 290 288 287 286 286 285 282 280 279 278 277 276 276 275 275 274 274 273 273 273 273 274 274 273 273 272 271 270 269 268 267 266 267 268 269 270 271 271 272 273 274 275 276 277 278 279 280 280 280 278